Terug naar catalogus

FENGYUN 1C DEB

ActiefSSO
NORAD 30891·DEBRIS·🇨🇳 China

Gelanceerd May 10, 1999 vanaf Taiyuan Satellite Launch Center

Loading…

Volgende Passages (komende 24 uur)

TLE

VersSource: Space-Track

Epoch: Sep 14, 2026, 21:49 UTC

1 30891U 99025AYD 26257.90935564  .00000339  00000-0  22774-3 0  9999
2 30891  98.7522 301.7636 0057183 132.2293  40.2568 14.06351926998635

Volg FENGYUN 1C DEB in realtime met AllMySat

Download on the App Store